OAL929 HDAM-HSSK

Flight info

Callsign OAL929
Flight time 1h 45m
Altitude 38000
Route LAKBE T118 ESRUD UT118 AVUKU T118 DURTA UT118 GEROB T118 EKBOB UT118 OKBID T118 UMTOK UT118 TIBOR T118 EGRUR UT118 UNGOT T118 BDR T666 TIKAT N314 KUVTI
Aircraft B738/M-V/N

Departure

Time 2026-05-09 16:34
Airport Djibouti-Ambouli Airport (HDAM)

Arrival

Time 2026-05-09 18:19
Airport Khartoum International Airport (HSSK)
Time Latitude Longitude Altitude Speed Heading
2026-05-09 16:27 11.54534 43.14617 55 ft 0 kts 93°
2026-05-09 16:32 11.54539 43.14625 50 ft 4 kts 43°
2026-05-09 16:32 11.54647 43.14605 52 ft 17 kts 359°
2026-05-09 16:32 11.54715 43.14605 49 ft 0 kts
2026-05-09 16:33 11.54721 43.14607 50 ft 8 kts 16°
2026-05-09 16:33 11.54755 43.14879 53 ft 82 kts 91°
2026-05-09 16:34 11.54740 43.15740 47 ft 158 kts 91°
2026-05-09 16:34 11.54722 43.16982 664 ft 177 kts 87°
2026-05-09 16:34 11.54568 43.18278 1658 ft 185 kts 111°
2026-05-09 16:34 11.53667 43.19337 2317 ft 219 kts 147°
2026-05-09 16:35 11.52081 43.19683 2483 ft 252 kts 185°
2026-05-09 16:35 11.50396 43.18986 2829 ft 274 kts 219°
2026-05-09 16:35 11.49183 43.17476 3547 ft 280 kts 245°
2026-05-09 16:35 11.48786 43.15555 4345 ft 280 kts 275°
2026-05-09 16:36 11.49248 43.13632 5087 ft 281 kts 292°
2026-05-09 16:36 11.51513 43.08122 7437 ft 285 kts 295°
2026-05-09 16:37 11.52301 43.06244 8072 ft 291 kts 295°
2026-05-09 16:37 11.53098 43.04329 8760 ft 295 kts 294°
2026-05-09 16:37 11.53900 43.02387 9465 ft 300 kts 294°
2026-05-09 16:37 11.54712 43.00409 10095 ft 305 kts 294°
2026-05-09 16:38 11.55557 42.98348 10315 ft 327 kts 294°
2026-05-09 16:38 11.56461 42.96136 10476 ft 348 kts 294°
2026-05-09 16:38 11.57417 42.93791 10612 ft 368 kts 294°
2026-05-09 16:38 11.58417 42.91330 10892 ft 381 kts 294°
2026-05-09 16:39 11.59437 42.88815 11386 ft 386 kts 294°
2026-05-09 16:39 11.60467 42.86268 11971 ft 388 kts 294°
2026-05-09 16:39 11.61493 42.83731 12507 ft 392 kts 294°
2026-05-09 16:39 11.62555 42.81103 13024 ft 397 kts 294°
2026-05-09 16:40 11.63597 42.78527 13541 ft 401 kts 294°
2026-05-09 16:40 11.64660 42.75895 14016 ft 404 kts 294°
2026-05-09 16:42 11.72326 42.56910 17322 ft 423 kts 293°
2026-05-09 16:42 11.73448 42.54131 17743 ft 426 kts 293°
2026-05-09 16:42 11.74576 42.51334 18173 ft 428 kts 293°
2026-05-09 16:42 11.75702 42.48541 18555 ft 430 kts 292°
2026-05-09 16:43 11.76840 42.45716 18933 ft 432 kts 292°
2026-05-09 16:43 11.77989 42.42862 19293 ft 434 kts 292°
2026-05-09 16:43 11.79144 42.39996 19657 ft 436 kts 292°
2026-05-09 16:43 11.80301 42.37121 20016 ft 438 kts 292°
2026-05-09 16:44 11.81464 42.34231 20380 ft 440 kts 292°
2026-05-09 16:44 11.82626 42.31343 20737 ft 441 kts 292°
2026-05-09 16:44 11.83801 42.28422 21071 ft 443 kts 291°
2026-05-09 16:44 11.84960 42.25540 21399 ft 445 kts 291°
2026-05-09 16:45 11.85743 42.23593 21632 ft 446 kts 291°
2026-05-09 16:45 11.87329 42.19648 22071 ft 448 kts 291°
2026-05-09 16:45 11.88504 42.16724 22392 ft 449 kts 291°
2026-05-09 16:45 11.89701 42.13742 22725 ft 450 kts 291°
2026-05-09 16:46 11.90880 42.10804 23026 ft 452 kts 291°
2026-05-09 16:46 11.92078 42.07820 23334 ft 453 kts 291°
2026-05-09 16:46 11.93273 42.04843 23582 ft 455 kts 291°
2026-05-09 16:46 11.94477 42.01839 23816 ft 457 kts 291°
2026-05-09 16:47 11.95667 41.98869 24036 ft 458 kts 290°
2026-05-09 16:47 11.96886 41.95827 24248 ft 460 kts 290°
2026-05-09 16:47 11.98104 41.92788 24454 ft 462 kts 290°
2026-05-09 16:47 11.99310 41.89779 24677 ft 463 kts 290°
2026-05-09 16:48 12.00538 41.86713 24903 ft 464 kts 290°
2026-05-09 16:48 12.01764 41.83649 25108 ft 465 kts 290°
2026-05-09 16:48 12.02975 41.80621 25311 ft 467 kts 290°
2026-05-09 16:48 12.04209 41.77534 25504 ft 468 kts 290°
2026-05-09 16:49 12.05438 41.74455 25697 ft 470 kts 290°
2026-05-09 16:49 12.06675 41.71358 25896 ft 471 kts 290°
2026-05-09 16:49 12.07918 41.68248 26103 ft 472 kts 290°
2026-05-09 16:50 12.10405 41.62022 26482 ft 474 kts 290°
2026-05-09 16:50 12.11642 41.58920 26655 ft 476 kts 290°
2026-05-09 16:50 12.12897 41.55775 26829 ft 477 kts 290°
2026-05-09 16:50 12.14141 41.52655 27012 ft 478 kts 290°
2026-05-09 16:51 12.15374 41.49560 27185 ft 479 kts 290°
2026-05-09 16:51 12.16632 41.46403 27363 ft 480 kts 290°
2026-05-09 16:51 12.17891 41.43244 27542 ft 481 kts 290°
2026-05-09 16:51 12.19154 41.40072 27691 ft 482 kts 290°
2026-05-09 16:52 12.20415 41.36901 27863 ft 482 kts 290°
2026-05-09 16:52 12.21683 41.33714 28015 ft 483 kts 290°
2026-05-09 16:52 12.22948 41.30532 28176 ft 484 kts 290°
2026-05-09 16:52 12.24215 41.27345 28392 ft 484 kts 290°
2026-05-09 16:53 12.25481 41.24161 28660 ft 482 kts 290°
2026-05-09 16:53 12.26740 41.20992 28933 ft 481 kts 290°
2026-05-09 16:53 12.27997 41.17828 29176 ft 480 kts 290°
2026-05-09 16:53 12.29253 41.14663 29393 ft 480 kts 289°
2026-05-09 16:54 12.30509 41.11498 29607 ft 480 kts 289°
2026-05-09 16:54 12.31761 41.08339 29879 ft 479 kts 289°
2026-05-09 16:54 12.33010 41.05190 30130 ft 477 kts 289°
2026-05-09 16:54 12.34257 41.02043 30367 ft 476 kts 289°
2026-05-09 16:55 12.35499 40.98908 30583 ft 476 kts 289°
2026-05-09 16:55 12.36740 40.95774 30807 ft 475 kts 289°
2026-05-09 16:55 12.37975 40.92654 31069 ft 473 kts 289°
2026-05-09 16:55 12.39209 40.89536 31329 ft 472 kts 289°
2026-05-09 16:56 12.40436 40.86433 31576 ft 471 kts 289°
2026-05-09 16:56 12.41665 40.83326 31802 ft 470 kts 289°
2026-05-09 16:56 12.42888 40.80231 32043 ft 469 kts 289°
2026-05-09 16:56 12.44109 40.77139 32300 ft 468 kts 289°
2026-05-09 16:57 12.44917 40.75093 32487 ft 467 kts 289°
2026-05-09 16:57 12.46130 40.72022 32765 ft 465 kts 289°
2026-05-09 16:57 12.47341 40.68955 33018 ft 464 kts 289°
2026-05-09 16:57 12.48942 40.64896 33321 ft 464 kts 289°
2026-05-09 16:58 12.50146 40.61841 33583 ft 462 kts 289°
2026-05-09 16:58 12.50958 40.59783 33777 ft 461 kts 289°
2026-05-09 16:58 12.52155 40.56743 34023 ft 460 kts 289°
2026-05-09 16:58 12.53351 40.53709 34240 ft 459 kts 289°
2026-05-09 16:59 12.54543 40.50680 34449 ft 459 kts 289°
2026-05-09 16:59 12.55732 40.47660 34681 ft 457 kts 289°
2026-05-09 16:59 12.56919 40.44644 34951 ft 455 kts 289°
2026-05-09 16:59 12.58098 40.41648 35215 ft 453 kts 289°
2026-05-09 17:00 12.59273 40.38659 35434 ft 452 kts 289°
2026-05-09 17:00 12.60448 40.35669 35622 ft 452 kts 289°
2026-05-09 17:00 12.61621 40.32683 35825 ft 452 kts 289°
2026-05-09 17:00 12.62792 40.29702 36061 ft 450 kts 289°
2026-05-09 17:01 12.63955 40.26739 36309 ft 448 kts 289°
2026-05-09 17:01 12.65116 40.23782 36523 ft 447 kts 289°
2026-05-09 17:01 12.66273 40.20831 36696 ft 447 kts 289°
2026-05-09 17:01 12.67430 40.17880 36855 ft 447 kts 289°
2026-05-09 17:02 12.68587 40.14930 37062 ft 446 kts 289°
2026-05-09 17:02 12.69739 40.11990 37304 ft 444 kts 289°
2026-05-09 17:02 12.70886 40.09061 37557 ft 442 kts 289°
2026-05-09 17:02 12.72028 40.06148 37791 ft 440 kts 289°
2026-05-09 17:03 12.73168 40.03233 37894 ft 441 kts 289°
2026-05-09 17:05 12.82247 39.80000 37996 ft 435 kts 289°
2026-05-09 17:05 12.84490 39.74250 38025 ft 433 kts 289°
2026-05-09 17:06 12.86718 39.68533 38043 ft 431 kts 289°
2026-05-09 17:06 12.88938 39.62834 38045 ft 429 kts 289°
2026-05-09 17:07 12.91135 39.57188 38031 ft 429 kts 288°
2026-05-09 17:07 12.93334 39.51533 38066 ft 426 kts 289°
2026-05-09 17:08 12.95541 39.45855 38056 ft 427 kts 288°
2026-05-09 17:08 12.98852 39.37327 38037 ft 430 kts 288°
2026-05-09 17:09 13.01053 39.31650 38044 ft 431 kts 288°
2026-05-09 17:09 13.03272 39.25926 38030 ft 432 kts 288°
2026-05-09 17:10 13.05491 39.20196 38001 ft 433 kts 288°
2026-05-09 17:10 13.07719 39.14443 37978 ft 434 kts 288°
2026-05-09 17:11 13.09937 39.08709 37950 ft 433 kts 288°
2026-05-09 17:11 13.12156 39.02968 37943 ft 433 kts 288°
2026-05-09 17:12 13.14375 38.97223 37944 ft 432 kts 288°
2026-05-09 17:12 13.16582 38.91504 37958 ft 430 kts 288°
2026-05-09 17:13 13.18777 38.85811 37967 ft 429 kts 288°
2026-05-09 17:13 13.20975 38.80106 37968 ft 429 kts 288°
2026-05-09 17:14 13.23166 38.74414 37971 ft 429 kts 288°
2026-05-09 17:14 13.25346 38.68749 37983 ft 429 kts 288°
2026-05-09 17:15 13.27539 38.63042 38009 ft 431 kts 289°
2026-05-09 17:15 13.29745 38.57298 38044 ft 435 kts 289°
2026-05-09 17:17 13.38781 38.33730 38036 ft 450 kts 289°
2026-05-09 17:18 13.41082 38.27718 38053 ft 451 kts 289°
2026-05-09 17:18 13.43349 38.21793 38053 ft 446 kts 289°
2026-05-09 17:19 13.45603 38.15895 38048 ft 441 kts 289°
2026-05-09 17:19 13.47830 38.10059 38063 ft 439 kts 289°
2026-05-09 17:20 13.50058 38.04217 38044 ft 439 kts 289°
2026-05-09 17:20 13.52284 37.98376 38042 ft 439 kts 289°
2026-05-09 17:21 13.54507 37.92536 38041 ft 440 kts 289°
2026-05-09 17:21 13.56750 37.86642 38025 ft 442 kts 289°
2026-05-09 17:22 13.58993 37.80741 38038 ft 444 kts 289°
2026-05-09 17:22 13.61236 37.74837 38026 ft 446 kts 289°
2026-05-09 17:23 13.63497 37.68879 38046 ft 448 kts 289°
2026-05-09 17:23 13.65761 37.62911 38023 ft 450 kts 289°
2026-05-09 17:25 13.72591 37.44875 38034 ft 452 kts 288°
2026-05-09 17:25 13.74888 37.38798 38030 ft 453 kts 288°
2026-05-09 17:26 13.77162 37.32779 38008 ft 452 kts 288°
2026-05-09 17:26 13.79432 37.26764 38009 ft 452 kts 288°
2026-05-09 17:27 13.81708 37.20728 38006 ft 451 kts 288°
2026-05-09 17:27 13.83971 37.14722 38003 ft 450 kts 288°
2026-05-09 17:28 13.86233 37.08711 37970 ft 451 kts 288°
2026-05-09 17:28 13.88484 37.02728 37992 ft 449 kts 288°
2026-05-09 17:29 13.90731 36.96747 38004 ft 448 kts 288°
2026-05-09 17:29 13.92977 36.90765 37989 ft 449 kts 288°
2026-05-09 17:30 13.95229 36.84762 37974 ft 449 kts 287°
2026-05-09 17:30 13.97490 36.78730 37966 ft 450 kts 287°
2026-05-09 17:31 13.99736 36.72732 37959 ft 450 kts 287°
2026-05-09 17:32 14.05370 36.57668 37944 ft 451 kts 287°
2026-05-09 17:33 14.07626 36.51626 37930 ft 451 kts 287°
2026-05-09 17:33 14.09862 36.45634 37909 ft 451 kts 287°
2026-05-09 17:34 14.12111 36.39601 37909 ft 451 kts 287°
2026-05-09 17:35 14.19962 36.18498 37871 ft 448 kts 286°
2026-05-09 17:36 14.22187 36.12507 37870 ft 447 kts 286°
2026-05-09 17:36 14.24400 36.06544 37862 ft 445 kts 286°
2026-05-09 17:37 14.26588 36.00641 37845 ft 443 kts 286°
2026-05-09 17:37 14.28780 35.94721 37845 ft 441 kts 286°
2026-05-09 17:38 14.30959 35.88834 37838 ft 439 kts 286°
2026-05-09 17:39 14.34221 35.80008 37845 ft 437 kts 286°
2026-05-09 17:39 14.36377 35.74166 37837 ft 437 kts 285°
2026-05-09 17:40 14.38531 35.68326 37817 ft 437 kts 285°
2026-05-09 17:40 14.40697 35.62452 37841 ft 437 kts 285°
2026-05-09 17:41 14.42854 35.56592 37822 ft 438 kts 286°
2026-05-09 17:41 14.45019 35.50707 37831 ft 438 kts 286°
2026-05-09 17:42 14.47181 35.44827 37822 ft 439 kts 286°
2026-05-09 17:42 14.48984 35.39919 37808 ft 440 kts 286°
2026-05-09 17:43 14.51522 35.33004 37838 ft 441 kts 286°
2026-05-09 17:43 14.53328 35.28080 37806 ft 442 kts 286°
2026-05-09 17:44 14.55503 35.22144 37825 ft 442 kts 286°
2026-05-09 17:44 14.57677 35.16205 37807 ft 443 kts 286°
2026-05-09 17:45 14.59867 35.10220 37822 ft 443 kts 286°
2026-05-09 17:45 14.62026 35.04310 37794 ft 443 kts 286°
2026-05-09 17:46 14.64213 34.98323 37812 ft 443 kts 286°
2026-05-09 17:46 14.66374 34.92396 37794 ft 443 kts 286°
2026-05-09 17:47 14.68549 34.86430 37804 ft 442 kts 286°
2026-05-09 17:47 14.70710 34.80497 37799 ft 442 kts 286°
2026-05-09 17:48 14.72877 34.74539 37799 ft 442 kts 286°
2026-05-09 17:48 14.75030 34.68615 37792 ft 441 kts 286°
2026-05-09 17:49 14.77197 34.62650 37798 ft 441 kts 286°
2026-05-09 17:49 14.79337 34.56751 37788 ft 440 kts 286°
2026-05-09 17:50 14.81483 34.50830 37797 ft 440 kts 286°
2026-05-09 17:50 14.84696 34.41956 37800 ft 439 kts 286°
2026-05-09 17:51 14.86846 34.36010 37454 ft 444 kts 286°
2026-05-09 17:51 14.87926 34.33017 36790 ft 446 kts 286°
2026-05-09 17:51 14.89004 34.30038 36403 ft 440 kts 286°
2026-05-09 17:52 14.90087 34.27039 35603 ft 445 kts 285°
2026-05-09 17:52 14.91161 34.24068 35044 ft 442 kts 285°
2026-05-09 17:52 14.92243 34.21066 34425 ft 444 kts 285°
2026-05-09 17:52 14.93325 34.18064 33510 ft 450 kts 285°
2026-05-09 17:53 14.94404 34.15068 33025 ft 445 kts 285°
2026-05-09 17:53 14.95500 34.12023 32158 ft 450 kts 285°
2026-05-09 17:53 14.96579 34.09028 31289 ft 454 kts 286°
2026-05-09 17:53 14.97688 34.05947 30785 ft 449 kts 286°
2026-05-09 17:54 14.98793 34.02873 30010 ft 453 kts 287°
2026-05-09 17:54 14.99884 33.99844 29222 ft 454 kts 287°
2026-05-09 17:54 15.00964 33.96844 28901 ft 444 kts 287°
2026-05-09 17:54 15.02054 33.93812 28314 ft 442 kts 287°
2026-05-09 17:55 15.03125 33.90834 27572 ft 443 kts 287°
2026-05-09 17:55 15.04171 33.87919 27175 ft 435 kts 288°
2026-05-09 17:55 15.05241 33.84936 26628 ft 434 kts 288°
2026-05-09 17:55 15.06286 33.82021 25984 ft 434 kts 288°
2026-05-09 17:56 15.07332 33.79101 25532 ft 430 kts 288°
2026-05-09 17:56 15.08370 33.76201 24952 ft 430 kts 289°
2026-05-09 17:56 15.09398 33.73330 24419 ft 428 kts 289°
2026-05-09 17:57 15.11460 33.67565 23325 ft 427 kts 289°
2026-05-09 17:57 15.12498 33.64664 22708 ft 426 kts 289°
2026-05-09 17:57 15.13512 33.61827 22157 ft 424 kts 289°
2026-05-09 17:57 15.14545 33.58938 21604 ft 421 kts 289°
2026-05-09 17:58 15.15545 33.56137 21073 ft 419 kts 289°
2026-05-09 17:58 15.16567 33.53273 20522 ft 418 kts 289°
2026-05-09 17:58 15.17567 33.50472 19989 ft 417 kts 289°
2026-05-09 17:58 15.18562 33.47679 19446 ft 416 kts 289°
2026-05-09 17:59 15.19565 33.44866 18920 ft 415 kts 289°
2026-05-09 17:59 15.20562 33.42068 18382 ft 415 kts 290°
2026-05-09 17:59 15.21559 33.39270 17791 ft 409 kts 290°
2026-05-09 17:59 15.22531 33.36539 17251 ft 398 kts 290°
2026-05-09 18:00 15.23476 33.33882 16731 ft 388 kts 290°
2026-05-09 18:00 15.24379 33.31345 16246 ft 379 kts 290°
2026-05-09 18:00 15.25280 33.28811 15733 ft 371 kts 290°
2026-05-09 18:00 15.26164 33.26324 15275 ft 365 kts 290°
2026-05-09 18:01 15.27039 33.23861 14740 ft 362 kts 290°
2026-05-09 18:01 15.27903 33.21426 14313 ft 362 kts 290°
2026-05-09 18:01 15.28790 33.18931 13839 ft 376 kts 290°
2026-05-09 18:01 15.29702 33.16362 13283 ft 379 kts 291°
2026-05-09 18:02 15.30599 33.13832 12763 ft 369 kts 291°
2026-05-09 18:02 15.31470 33.11371 12273 ft 359 kts 291°
2026-05-09 18:02 15.32320 33.08972 11805 ft 350 kts 291°
2026-05-09 18:02 15.33149 33.06631 11346 ft 344 kts 291°
2026-05-09 18:03 15.33971 33.04311 10889 ft 341 kts 291°
2026-05-09 18:03 15.34782 33.02020 10693 ft 337 kts 292°
2026-05-09 18:03 15.35599 32.99715 10512 ft 344 kts 292°
2026-05-09 18:03 15.36407 32.97431 10368 ft 330 kts 292°
2026-05-09 18:04 15.37170 32.95267 10230 ft 313 kts 292°
2026-05-09 18:04 15.37893 32.93219 10090 ft 298 kts 292°
2026-05-09 18:04 15.38596 32.91230 9974 ft 283 kts 292°
2026-05-09 18:04 15.39142 32.89328 9813 ft 277 kts 277°
2026-05-09 18:05 15.38847 32.87374 9728 ft 272 kts 247°
2026-05-09 18:05 15.37801 32.85703 9539 ft 289 kts 227°
2026-05-09 18:05 15.36398 32.84168 9317 ft 297 kts 226°
2026-05-09 18:05 15.34967 32.82622 9075 ft 295 kts 226°
2026-05-09 18:06 15.33567 32.81101 8928 ft 284 kts 226°
2026-05-09 18:06 15.32261 32.79675 8824 ft 263 kts 227°
2026-05-09 18:06 15.31049 32.78345 8707 ft 244 kts 227°
2026-05-09 18:06 15.29931 32.77116 8597 ft 225 kts 227°
2026-05-09 18:07 15.28887 32.75965 8231 ft 220 kts 227°
2026-05-09 18:07 15.27869 32.74842 8058 ft 207 kts 227°
2026-05-09 18:07 15.26876 32.73745 7834 ft 209 kts 227°
2026-05-09 18:07 15.25873 32.72638 7696 ft 212 kts 227°
2026-05-09 18:08 15.24860 32.71519 7540 ft 213 kts 227°
2026-05-09 18:08 15.23850 32.70404 7378 ft 212 kts 228°
2026-05-09 18:08 15.22843 32.69293 7227 ft 211 kts 228°
2026-05-09 18:08 15.21838 32.68184 7068 ft 211 kts 228°
2026-05-09 18:09 15.20834 32.67077 6918 ft 211 kts 228°
2026-05-09 18:09 15.19954 32.65868 6706 ft 209 kts 254°
2026-05-09 18:09 15.19881 32.64457 6687 ft 194 kts 278°
2026-05-09 18:09 15.19908 32.62993 6498 ft 204 kts 272°
2026-05-09 18:10 15.19878 32.61546 6358 ft 201 kts 272°
2026-05-09 18:10 15.19860 32.60601 6388 ft 197 kts 272°
2026-05-09 18:10 15.19833 32.58647 6226 ft 206 kts 273°
2026-05-09 18:10 15.19942 32.57198 6043 ft 199 kts 293°
2026-05-09 18:11 15.20803 32.56214 5940 ft 181 kts 342°
2026-05-09 18:11 15.22048 32.56031 5863 ft 185 kts 356°
2026-05-09 18:11 15.23338 32.55868 5676 ft 186 kts 354°
2026-05-09 18:11 15.24614 32.55741 5537 ft 182 kts 357°
2026-05-09 18:12 15.25873 32.55674 5401 ft 181 kts 358°
2026-05-09 18:12 15.27136 32.55636 5270 ft 182 kts 359°
2026-05-09 18:12 15.28399 32.55611 5135 ft 181 kts 359°
2026-05-09 18:12 15.29661 32.55594 5015 ft 181 kts 359°
2026-05-09 18:13 15.30924 32.55580 4881 ft 182 kts 359°
2026-05-09 18:13 15.32195 32.55567 4750 ft 183 kts 359°
2026-05-09 18:13 15.33465 32.55555 4617 ft 182 kts 359°
2026-05-09 18:13 15.34734 32.55543 4485 ft 182 kts 359°
2026-05-09 18:14 15.36000 32.55531 4344 ft 182 kts 359°
2026-05-09 18:14 15.37265 32.55519 4204 ft 181 kts 359°
2026-05-09 18:14 15.38521 32.55508 4079 ft 180 kts 359°
2026-05-09 18:14 15.39764 32.55496 3953 ft 177 kts 359°
2026-05-09 18:15 15.40988 32.55485 3805 ft 175 kts 358°
2026-05-09 18:15 15.42202 32.55473 3684 ft 175 kts 359°
2026-05-09 18:15 15.43423 32.55462 3590 ft 172 kts 358°
2026-05-09 18:15 15.44560 32.55451 3440 ft 158 kts 359°
2026-05-09 18:16 15.45608 32.55442 3372 ft 150 kts 358°
2026-05-09 18:16 15.46651 32.55431 3230 ft 148 kts 358°
2026-05-09 18:16 15.47668 32.55422 3065 ft 145 kts 358°
2026-05-09 18:16 15.48673 32.55412 2891 ft 143 kts 358°
2026-05-09 18:17 15.49667 32.55403 2705 ft 143 kts 358°
2026-05-09 18:17 15.50653 32.55394 2539 ft 141 kts 357°
2026-05-09 18:17 15.51633 32.55385 2364 ft 140 kts 357°
2026-05-09 18:17 15.52610 32.55375 2185 ft 141 kts 358°
2026-05-09 18:18 15.53592 32.55366 2027 ft 142 kts 358°
2026-05-09 18:18 15.54613 32.55356 1851 ft 149 kts 359°
2026-05-09 18:18 15.55627 32.55349 1678 ft 147 kts 357°
2026-05-09 18:18 15.56660 32.55337 1497 ft 148 kts 358°
2026-05-09 18:19 15.57696 32.55327 1291 ft 148 kts 359°
2026-05-09 18:19 15.58843 32.55291 1268 ft 19 kts 305°
2026-05-09 18:19 15.58877 32.55233 1271 ft 0 kts 301°